Flag for U.S.A. Weather past 2 weeks in Allentown, Pennsylvania, U.S.A.

Now
74 °F

Passing clouds.


Feels Like: 76 °F
Forecast: 63 / 69 °F
Wind: 6 mph from Northeast

Location: Lehigh Valley International Airport

Current Time: Jul 4, 2015 at 3:57:38 PM

Latest Report: Jul 4, 2015 at 2:51 PM


Visibility: 10 mi

Pressure: 29.95 "Hg

Humidity: 67%

Dew point: 62 °F

Location of AllentownLocation

Historic Weather in Allentown — Graph

°F

Allentown temperature yesterday

Maximum temperature yesterday: 81 °F (at 3:51 PM)
Minimum temperature yesterday: 59 °F (at 5:51 AM)
Average temperature yesterday: 72 °F

Past Weeks' High & Low Weather Summary

 TemperatureHumidityPressure
High89 °F (Jun 23, 3:51 PM)94% (Jun 21, 1:58 AM)30.10 "Hg (Jun 21, 1:58 AM)
Low57 °F (Jun 27, 6:59 PM)42% (Jun 22, 5:51 PM)29.66 "Hg (Jun 28, 5:51 AM)
Average71 °F72%29.91 "Hg
* Reported Jun 19 2:51 PM — Jul 4 2:51 PM, Allentown, Weather by CustomWeather, © 2015

Note: Actual official high and low records may vary slightly from our data, if they occured in-between our weather recording intervals... More about our weather records

Advertising

Allentown weather history for previous 24 hours

 ConditionsComfort  
Time TempWeatherWind HumidityBarometerVisibility
2:51 PM
Sat, Jul 4
74 °FPassing clouds.6 mph67%29.95 "Hg10 mi
1:51 PM71 °FScattered clouds.9 mph76%29.96 "Hg10 mi
12:51 PM68 °FHaze.12 mph84%29.96 "Hg4 mi
11:51 AM66 °FLight rain. Fog.7 mph87%29.98 "Hg4 mi
11:04 AM66 °FLight rain. Fog.8 mph88%29.97 "Hg4 mi
10:51 AM68 °FLight rain. Fog.8 mph87%29.97 "Hg5 mi
9:51 AM68 °FLight rain. Fog.7 mph87%29.96 "Hg6 mi
8:51 AM68 °FLight rain. Fog.6 mph87%29.95 "Hg5 mi
7:51 AM69 °FLight rain. Mostly cloudy.6 mph84%29.93 "Hg6 mi
6:51 AM69 °FOvercast.7 mph81%29.93 "Hg6 mi
6:01 AM68 °FLight rain. Fog.5 mph88%29.94 "Hg6 mi
4:51 AM70 °FOvercast.No wind76%29.93 "Hg10 mi
3:51 AM71 °FMostly cloudy.3 mph71%29.93 "Hg10 mi
2:51 AM71 °FPartly cloudy.No wind71%29.93 "Hg10 mi
1:51 AM72 °FPassing clouds.5 mph68%29.95 "Hg10 mi
12:51 AM72 °FPassing clouds.5 mph66%29.96 "Hg10 mi
11:51 PM
Fri, Jul 3
73 °FPassing clouds.6 mph66%29.95 "Hg10 mi
10:51 PM74 °FClear.No wind64%29.95 "Hg10 mi
9:51 PM75 °FClear.3 mph62%29.95 "Hg10 mi
8:51 PM73 °FSunny.3 mph66%29.93 "Hg9 mi
7:51 PM77 °FSunny.6 mph56%29.94 "Hg10 mi
6:51 PM78 °FSunny.6 mph54%29.94 "Hg10 mi
5:51 PM79 °FSunny.8 mph48%29.94 "Hg10 mi
4:51 PM80 °FPartly sunny.6 mph45%29.95 "Hg10 mi
3:51 PM81 °FPartly sunny.6 mph44%29.96 "Hg10 mi
Weather by CustomWeather, © 2015

See weather overviewHow to use our weather pages